Orbital Elements at Epoch 2459200.5 (2020-Dec-17.0) TDB
Reference: JPL 23 (heliocentric ecliptic J2000)
Element | Value | Uncertainty (1-sigma) | Units |
e | .2309883572368119 | 2.7937e-08 | |
a | 2.311089320201141 | 6.9469e-09 | au |
q | 1.777254594700339 | 6.4493e-08 | au |
i | 2.579706961767962 | 4.5557e-06 | deg |
node | 199.3047976567821 | 7.6771e-05 | deg |
peri | 221.3396803149251 | 7.7576e-05 | deg |
M | 287.4146151763408 | 1.1534e-05 | deg |
tp | 2459459.243951131765 (2021-Sep-01.74395113) | 4.1664e-05 | TDB |
period | 1283.286196439287 3.51 | 5.7862e-06 1.584e-08 | d yr |
n | .2805297843917327 | 1.2649e-09 | deg/d |
Q | 2.844924045701942 | 8.5516e-09 | au |
|
| | Orbit Determination Parameters
Additional Information
|